Content
SEND FEEDBACK

Daily
Averages
Monthly
Summary
United States of America

GRAYLING, MICHIGAN


Home > North America > United States > Michigan
Elevation: 1152 feet     Latitude: 44 41N     Longitude: 084 44W

WEATHER
 
SELECT A DAY
Number of Records: 315,965;   Date Range: 12/27/01 - 11/26/14
 
SHARE

PRINT THIS DATA

[ ← Previous Day ]
WEATHER ALMANAC - JANUARY 31, 2013
[ Next Day → ]
[ °C ]   °F
Weather ElementAverageHighLow
Temperature16.6 °F21.7 °F (12:34 am)13.6 °F (10:54 pm)
Dewpoint12.4 °F17.6 °F (12:34 am)8.8 °F (2:11 pm)
Humidity83.6 %92 % (8:33 pm)66 % (2:11 pm)
Barometer29.51 in29.78 in (11:34 pm)29.17 in (12:34 am)
Wind Speed11.7 mph20.7 mph (1:35 am)
Wind Gust32.2 mph (3:32 am)
Weather ElementAverage
Visibility2.7 mi
Wind DirectionWNW (293 °)

Weather ElementTotal
Precipitation---
Heating Degree Days47.4 (Base 65)
Averaged from 67 records on January 31, 2013
WEATHER CONDITIONS BREAKOUT
WIND DIRECTION BREAKOUT
WEATHER BY HOUR - JANUARY 31, 2013
[ °C ]   °F
Local TimeTemperatureDewpointHumidityBarometerVisibilityWind DirectionWind SpeedGust SpeedPrecipitationEventsConditions
12:34 AM21.7 °F17.6 °F84 %29.17 in5.0 miWNW (290°)15.0 mph27.6 mphSnowLight Snow
1:15 AM20.1 °F16.5 °F86 %29.20 in4.0 miWNW (300°)13.8 mph20.7 mphSnowLight Snow
1:35 AM19.4 °F15.1 °F83 %29.21 in4.0 miWNW (290°)20.7 mph26.5 mphSnowLight Snow
1:50 AM18.5 °F14.2 °F83 %29.21 in4.0 miWNW (290°)18.4 mph25.3 mphSnowLight Snow
2:12 AM18.7 °F14.2 °F83 %29.22 in5.0 miWNW (300°)19.6 mph25.3 mphSnowLight Snow
2:32 AM18.5 °F14.0 °F83 %29.23 in3.0 miWNW (290°)18.4 mph27.6 mphSnowLight Snow
2:52 AM18.5 °F14.2 °F83 %29.25 in3.0 miWest (280°)19.6 mph29.9 mphSnowLight Snow
3:12 AM18.5 °F14.0 °F83 %29.26 in4.0 miWNW (300°)16.1 mph26.5 mphSnowLight Snow
3:32 AM18.5 °F13.8 °F82 %29.27 in4.0 miWNW (300°)16.1 mph32.2 mphSnowLight Snow
3:52 AM18.5 °F13.8 °F82 %29.27 in5.0 miWNW (300°)17.3 mph25.3 mphSnowLight Snow
4:15 AM16.7 °F12.2 °F82 %29.28 in4.0 miWNW (300°)15.0 mph23.0 mphSnowLight Snow
4:35 AM16.5 °F12.2 °F83 %29.29 in3.0 miWNW (300°)15.0 mph23.0 mphSnowLight Snow
4:55 AM16.7 °F12.9 °F85 %29.30 in2.5 miWNW (300°)13.8 mph24.2 mphSnowLight Snow
5:15 AM16.3 °F11.8 °F82 %29.31 in4.0 miWNW (290°)15.0 mph20.7 mphSnowLight Snow
5:35 AM15.8 °F11.5 °F83 %29.33 in4.0 miWNW (300°)10.4 mph18.4 mphSnowLight Snow
5:55 AM16.0 °F12.0 °F84 %29.34 in2.5 miWNW (300°)10.4 mph18.4 mphSnowLight Snow
6:15 AM15.8 °F12.2 °F86 %29.35 in1.8 miWNW (300°)11.5 mph18.4 mphSnowLight Snow
6:35 AM16.0 °F12.7 °F87 %29.36 in1.2 miWNW (300°)10.4 mph18.4 mphSnowLight Snow
6:55 AM15.8 °F12.9 °F88 %29.37 in1.2 miWNW (300°)6.9 mphSnowLight Snow
7:11 AM16.0 °F12.7 °F87 %29.38 in1.5 miNW (310°)10.4 mphSnowLight Snow
7:31 AM16.0 °F13.1 °F88 %29.39 in1.5 miWNW (300°)6.9 mphSnowLight Snow
7:51 AM15.8 °F13.1 °F89 %29.40 in1.0 miWNW (300°)8.1 mphSnowSnow
8:11 AM16.2 °F13.3 °F88 %29.41 in0.5 miNW (320°)6.9 mphSnowSnow
8:31 AM16.3 °F13.8 °F90 %29.42 in0.2 miWNW (290°)10.4 mph16.1 mphSnowSnow
8:51 AM16.5 °F13.8 °F89 %29.43 in0.8 miWNW (290°)9.2 mphSnowLight Snow
9:11 AM16.5 °F13.5 °F88 %29.44 in1.0 miWNW (290°)12.7 mph18.4 mphSnowLight Snow
9:34 AM15.6 °F12.9 °F89 %29.46 in0.8 miNNW (340°)5.8 mphSnowLight Snow
9:54 AM16.3 °F13.8 °F90 %29.47 in0.2 miNW (310°)10.4 mph17.3 mphSnowSnow
10:34 AM15.8 °F13.1 °F89 %29.49 in0.2 miNW (320°)11.5 mph18.4 mphSnowHeavy Snow
10:55 AM14.7 °F11.1 °F86 %29.51 in0.5 miNW (320°)16.1 mph19.6 mphSnowLight Snow
11:15 AM15.8 °F12.2 °F86 %29.53 in0.5 miWNW (300°)10.4 mphSnowSnow
11:35 AM15.8 °F12.6 °F87 %29.53 in0.5 miNW (320°)12.7 mphSnowSnow
12:00 PM15.8 °F12.2 °F86 %29.54 in1.8 miNW (310°)5.8 mphSnowLight Snow
12:15 PM16.5 °F12.0 °F82 %29.54 in1.8 miNW (320°)8.1 mphSnowLight Snow
12:35 PM18.5 °F10.8 °F72 %29.54 in4.0 miWNW (300°)15.0 mph27.6 mphHaze
1:15 PM18.3 °F9.3 °F68 %29.55 in5.0 miWNW (290°)16.1 mph26.5 mphHaze
1:31 PM18.3 °F9.1 °F67 %29.55 in5.0 miWNW (290°)15.0 mph24.2 mphHaze
1:51 PM17.2 °F9.0 °F70 %29.55 in2.0 miWNW (290°)15.0 mph28.8 mphSnowLight Snow
2:11 PM18.5 °F8.8 °F66 %29.56 in10.0 miWNW (290°)15.0 mph19.6 mphMostly Cloudy
2:31 PM18.0 °F12.2 °F78 %29.57 in1.0 miWNW (290°)12.7 mph21.9 mphSnowLight Snow
2:51 PM17.2 °F11.1 °F77 %29.58 in4.0 miWest (280°)12.7 mph18.4 mphSnowLight Snow
3:11 PM18.3 °F11.1 °F73 %29.58 in5.0 miWNW (290°)15.0 mph20.7 mphSnowLight Snow
3:31 PM18.3 °F12.6 °F78 %29.60 in1.5 miWest (280°)11.5 mph18.4 mphSnowLight Snow
3:51 PM18.5 °F12.4 °F77 %29.61 in2.5 miWest (280°)11.5 mph16.1 mphSnowLight Snow
4:11 PM17.1 °F12.4 °F82 %29.62 in1.0 miWest (280°)12.7 mph19.6 mphSnowLight Snow
4:31 PM16.5 °F12.2 °F83 %29.63 in1.0 miWest (270°)13.8 mph20.7 mphSnowLight Snow
4:52 PM16.3 °F12.6 °F85 %29.64 in1.0 miWest (270°)6.9 mphSnowLight Snow
5:12 PM15.8 °F12.0 °F85 %29.65 in1.2 miWest (270°)9.2 mph18.4 mphSnowLight Snow
5:32 PM15.8 °F11.7 °F84 %29.66 in4.0 miWest (270°)10.4 mph16.1 mphSnowLight Snow
5:52 PM15.8 °F12.0 °F85 %29.67 in1.8 miWest (280°)11.5 mph16.1 mphSnowLight Snow
6:12 PM15.6 °F11.5 °F84 %29.67 in4.0 miWest (270°)8.1 mph16.1 mphSnowLight Snow
6:32 PM15.8 °F12.0 °F85 %29.68 in3.0 miWest (270°)9.2 mphSnowLight Snow
6:52 PM14.9 °F11.3 °F86 %29.69 in2.5 miWest (270°)11.5 mph18.4 mphSnowLight Snow
7:12 PM15.8 °F12.4 °F86 %29.69 in2.5 miWest (260°)9.2 mph16.1 mphSnowLight Snow
7:33 PM15.8 °F12.7 °F88 %29.70 in2.5 miWest (270°)8.1 mphSnowLight Snow
7:53 PM15.8 °F13.1 °F89 %29.70 in1.2 miWest (270°)8.1 mphSnowLight Snow
8:13 PM15.8 °F13.5 °F90 %29.71 in1.0 miWest (260°)8.1 mphSnowSnow
8:33 PM15.8 °F13.8 °F92 %29.72 in0.5 miWNW (290°)4.6 mphSnowHeavy Snow
9:13 PM15.8 °F13.5 °F90 %29.73 in1.0 miNW (310°)8.1 mphSnowSnow
9:33 PM15.8 °F13.5 °F90 %29.74 in1.0 miWNW (290°)8.1 mphSnowSnow
9:53 PM15.4 °F12.0 °F86 %29.75 in2.5 miWNW (300°)12.7 mph17.3 mphSnowLight Snow
10:13 PM14.7 °F10.4 °F83 %29.76 in5.0 miWNW (300°)11.5 mphSnowLight Snow
10:34 PM14.2 °F9.9 °F83 %29.76 in7.0 miWNW (300°)9.2 mphSnowLight Snow
10:54 PM13.6 °F9.1 °F82 %29.76 in5.0 miWNW (300°)9.2 mphSnowLight Snow
11:14 PM14.0 °F9.5 °F82 %29.77 in5.0 miWNW (290°)6.9 mphSnowLight Snow
11:34 PM14.0 °F9.7 °F83 %29.78 in4.0 miWNW (290°)9.2 mphSnowLight Snow
11:54 PM13.6 °F9.3 °F83 %29.78 in5.0 miWNW (300°)6.9 mph16.1 mphSnowLight Snow
Hourly data recorded from KGOV, located miles away from Grayling, Michigan







STORIES FROM OUR PARTNERS